Location: *
(44.1392°N, 4.8079°E)
Time: 14:50:10
(UTC+00:00)

NOSS 5 (C) - Pass Details

Date: 27 October 2021
Orbit: 381 x 1717 km, 63.3° (Epoch: 29 November)

Event Time Altitude Azimuth Distance (km) Brightness Sun altitude
Rises 17:02:21 0° 338° (NNW) 2,267 8.1 -5.1°
Reaches altitude 10° 17:05:14 10° 11° (N) 1,436 6.7 -5.6°
Maximum altitude 17:06:41 13° 39° (NE) 1,325 6.3 -5.9°
Drops below altitude 10° 17:08:11 10° 67° (ENE) 1,521 6.4 -6.1°
Enters shadow 17:08:54 - 77° (ENE) 1,698 6.6 -6.3°
